Time,TemperatureF,DewpointF,PressureIn,WindDirection,WindDirectionDegrees,WindSpeedMPH,WindSpeedGustMPH,Humidity,HourlyPrecipIn,Conditions,Clouds,dailyrainin,SoftwareType,DateUTC
2013-03-21 00:03:00,39.5,16.0,29.89,NW,315,4.0,8.0,38,0.00,,,-99.99,WeatherLink 5.7,2013-03-21 04:03:00,
2013-03-21 00:14:00,39.5,16.0,29.89,NW,315,3.0,8.0,38,0.00,,,-99.99,WeatherLink 5.7,2013-03-21 04:14:00,
2013-03-21 00:23:00,39.3,16.4,29.89,NW,315,4.0,8.0,39,0.00,,,-99.99,WeatherLink 5.7,2013-03-21 04:23:00,
2013-03-21 00:33:00,39.4,16.5,29.89,NW,315,3.0,8.0,39,0.00,,,-99.99,WeatherLink 5.7,2013-03-21 04:33:00,
2013-03-21 00:44:00,39.0,17.3,29.88,NW,315,3.0,6.0,41,0.00,,,-99.99,WeatherLink 5.7,2013-03-21 04:44:00,
2013-03-21 00:53:00,38.7,17.0,29.88,NW,315,3.0,7.0,41,0.00,,,-99.99,WeatherLink 5.7,2013-03-21 04:53:00,
2013-03-21 01:03:00,38.2,18.7,29.88,NW,315,6.0,11.0,45,0.00,,,-99.99,WeatherLink 5.7,2013-03-21 05:03:00,
2013-03-21 01:13:00,37.4,20.4,29.88,NW,315,7.0,15.0,50,0.00,,,-99.99,WeatherLink 5.7,2013-03-21 05:13:00,
2013-03-21 01:23:00,36.8,20.3,29.88,NW,315,6.0,11.0,51,0.00,,,-99.99,WeatherLink 5.7,2013-03-21 05:23:00,
2013-03-21 01:33:00,36.6,21.5,29.88,NNW,337,5.0,9.0,54,0.00,,,-99.99,WeatherLink 5.7,2013-03-21 05:33:00,
2013-03-21 01:44:00,36.0,22.6,29.87,NNW,337,5.0,11.0,58,0.00,,,-99.99,WeatherLink 5.7,2013-03-21 05:44:00,
2013-03-21 01:54:00,35.3,22.4,29.87,NW,315,5.0,10.0,59,0.00,,,-99.99,WeatherLink 5.7,2013-03-21 05:54:00,
2013-03-21 02:03:00,35.0,22.5,29.86,NNW,337,5.0,9.0,60,0.00,,,-99.99,WeatherLink 5.7,2013-03-21 06:03:00,
2013-03-21 02:14:00,35.0,22.9,29.87,NNW,337,4.0,9.0,61,0.00,,,-99.99,WeatherLink 5.7,2013-03-21 06:14:00,
2013-03-21 02:23:00,34.8,23.5,29.87,NNW,337,5.0,10.0,63,0.00,,,-99.99,WeatherLink 5.7,2013-03-21 06:23:00,
2013-03-21 02:34:00,34.4,23.8,29.86,NW,315,5.0,10.0,65,0.00,,,-99.99,WeatherLink 5.7,2013-03-21 06:34:00,
2013-03-21 02:43:00,34.1,24.3,29.86,NW,315,6.0,12.0,67,0.00,,,-99.99,WeatherLink 5.7,2013-03-21 06:43:00,
2013-03-21 02:54:00,33.7,24.6,29.86,NNW,337,5.0,11.0,69,0.00,,,-99.99,WeatherLink 5.7,2013-03-21 06:54:00,
2013-03-21 03:03:00,33.5,25.1,29.86,NNW,337,6.0,12.0,71,0.00,,,-99.99,WeatherLink 5.7,2013-03-21 07:03:00,
2013-03-21 03:14:00,33.2,25.5,29.85,NNW,337,5.0,9.0,73,0.00,,,-99.99,WeatherLink 5.7,2013-03-21 07:14:00,
2013-03-21 03:24:00,32.9,25.8,29.85,NNW,337,4.0,9.0,75,0.00,,,-99.99,WeatherLink 5.7,2013-03-21 07:24:00,
2013-03-21 03:34:00,32.8,25.7,29.85,NW,315,4.0,12.0,75,0.00,,,-99.99,WeatherLink 5.7,2013-03-21 07:34:00,
2013-03-21 03:43:00,32.6,26.2,29.85,NW,315,6.0,10.0,77,0.00,,,-99.99,WeatherLink 5.7,2013-03-21 07:43:00,
2013-03-21 03:54:00,32.4,25.7,29.83,NW,315,7.0,14.0,76,0.00,,,-99.99,WeatherLink 5.7,2013-03-21 07:54:00,
2013-03-21 04:03:00,32.2,25.2,29.83,North,0,7.0,14.0,75,0.00,,,-99.99,WeatherLink 5.7,2013-03-21 08:03:00,
2013-03-21 04:13:00,32.1,25.4,29.83,North,0,4.0,10.0,76,0.00,,,-99.99,WeatherLink 5.7,2013-03-21 08:13:00,
2013-03-21 04:24:00,32.1,25.1,29.82,North,0,3.0,6.0,75,0.00,,,-99.99,WeatherLink 5.7,2013-03-21 08:24:00,
2013-03-21 04:33:00,32.1,24.4,29.82,North,0,3.0,7.0,73,0.00,,,-99.99,WeatherLink 5.7,2013-03-21 08:33:00,
2013-03-21 04:43:00,32.3,23.6,29.82,North,0,4.0,9.0,70,0.00,,,-99.99,WeatherLink 5.7,2013-03-21 08:43:00,
2013-03-21 04:53:00,32.4,23.4,29.82,North,0,2.0,6.0,69,0.00,,,-99.99,WeatherLink 5.7,2013-03-21 08:53:00,
2013-03-21 05:03:00,32.5,23.1,29.82,North,0,3.0,7.0,68,0.00,,,-99.99,WeatherLink 5.7,2013-03-21 09:03:00,
2013-03-21 05:14:00,32.6,22.8,29.82,North,0,4.0,10.0,67,0.00,,,-99.99,WeatherLink 5.7,2013-03-21 09:14:00,
2013-03-21 05:23:00,32.6,22.5,29.81,North,0,6.0,13.0,66,0.00,,,-99.99,WeatherLink 5.7,2013-03-21 09:23:00,
2013-03-21 05:33:00,32.6,21.8,29.82,North,0,5.0,13.0,64,0.00,,,-99.99,WeatherLink 5.7,2013-03-21 09:33:00,
2013-03-21 05:44:00,32.6,21.8,29.81,North,0,8.0,13.0,64,0.00,,,-99.99,WeatherLink 5.7,2013-03-21 09:44:00,
2013-03-21 05:53:00,32.6,21.0,29.82,North,0,8.0,14.0,62,0.00,,,-99.99,WeatherLink 5.7,2013-03-21 09:53:00,
2013-03-21 06:03:00,32.6,20.6,29.82,North,0,7.0,13.0,61,0.00,,,-99.99,WeatherLink 5.7,2013-03-21 10:03:00,
2013-03-21 06:14:00,32.7,19.1,29.83,North,0,9.0,17.0,57,0.00,,,-99.99,WeatherLink 5.7,2013-03-21 10:14:00,
2013-03-21 06:23:00,32.5,18.5,29.83,North,0,9.0,16.0,56,0.00,,,-99.99,WeatherLink 5.7,2013-03-21 10:23:00,
2013-03-21 06:33:00,32.4,17.6,29.84,North,0,10.0,18.0,54,0.00,,,-99.99,WeatherLink 5.7,2013-03-21 10:33:00,
2013-03-21 06:44:00,32.3,17.5,29.84,North,0,7.0,15.0,54,0.00,,,-99.99,WeatherLink 5.7,2013-03-21 10:44:00,
2013-03-21 06:53:00,32.2,17.0,29.84,North,0,7.0,13.0,53,0.00,,,-99.99,WeatherLink 5.7,2013-03-21 10:53:00,
2013-03-21 07:03:00,32.2,16.1,29.83,North,0,8.0,15.0,51,0.00,,,-99.99,WeatherLink 5.7,2013-03-21 11:03:00,
2013-03-21 07:14:00,32.1,14.6,29.83,North,0,6.0,12.0,48,0.00,,,-99.99,WeatherLink 5.7,2013-03-21 11:14:00,
2013-03-21 07:23:00,31.7,14.2,29.83,NNW,337,7.0,13.0,48,0.00,,,-99.99,WeatherLink 5.7,2013-03-21 11:23:00,
2013-03-21 07:33:00,31.6,13.2,29.83,NW,315,6.0,12.0,46,0.00,,,-99.99,WeatherLink 5.7,2013-03-21 11:33:00,
2013-03-21 07:44:00,31.4,13.9,29.83,NW,315,6.0,14.0,48,0.00,,,-99.99,WeatherLink 5.7,2013-03-21 11:44:00,
2013-03-21 07:53:00,31.4,13.9,29.83,North,0,6.0,11.0,48,0.00,,,-99.99,WeatherLink 5.7,2013-03-21 11:53:00,
2013-03-21 08:03:00,31.2,13.8,29.83,North,0,7.0,12.0,48,0.00,,,-99.99,WeatherLink 5.7,2013-03-21 12:03:00,
2013-03-21 08:13:00,31.3,13.4,29.83,North,0,6.0,12.0,47,0.00,,,-99.99,WeatherLink 5.7,2013-03-21 12:13:00,
2013-03-21 08:24:00,31.1,12.7,29.83,NNW,337,6.0,14.0,46,0.00,,,-99.99,WeatherLink 5.7,2013-03-21 12:24:00,
2013-03-21 08:33:00,31.3,13.4,29.83,North,0,6.0,13.0,47,0.00,,,-99.99,WeatherLink 5.7,2013-03-21 12:33:00,
2013-03-21 08:44:00,31.2,13.3,29.83,NNE,22,7.0,12.0,47,0.00,,,-99.99,WeatherLink 5.7,2013-03-21 12:44:00,
2013-03-21 08:53:00,31.4,12.0,29.82,NNW,337,6.0,12.0,44,0.00,,,-99.99,WeatherLink 5.7,2013-03-21 12:53:00,
2013-03-21 09:03:00,31.3,10.8,29.82,NW,315,7.0,13.0,42,0.00,,,-99.99,WeatherLink 5.7,2013-03-21 13:03:00,
2013-03-21 09:14:00,31.0,10.6,29.82,NNW,337,7.0,15.0,42,0.00,,,-99.99,WeatherLink 5.7,2013-03-21 13:14:00,
2013-03-21 09:24:00,31.3,10.3,29.82,NNW,337,5.0,11.0,41,0.00,,,-99.99,WeatherLink 5.7,2013-03-21 13:24:00,
2013-03-21 09:33:00,31.4,8.1,29.82,North,0,7.0,16.0,37,0.00,,,-99.99,WeatherLink 5.7,2013-03-21 13:33:00,
2013-03-21 09:44:00,31.2,7.9,29.82,NW,315,7.0,13.0,37,0.00,,,-99.99,WeatherLink 5.7,2013-03-21 13:44:00,
2013-03-21 09:53:00,31.3,8.6,29.82,NW,315,7.0,16.0,38,0.00,,,-99.99,WeatherLink 5.7,2013-03-21 13:53:00,
2013-03-21 10:03:00,31.3,8.6,29.82,NNW,337,6.0,14.0,38,0.00,,,-99.99,WeatherLink 5.7,2013-03-21 14:03:00,
2013-03-21 10:14:00,31.7,7.7,29.81,NW,315,6.0,15.0,36,0.00,,,-99.99,WeatherLink 5.7,2013-03-21 14:14:00,
2013-03-21 10:23:00,32.0,7.4,29.81,NW,315,5.0,12.0,35,0.00,,,-99.99,WeatherLink 5.7,2013-03-21 14:23:00,
2013-03-21 10:34:00,32.4,7.1,29.81,NNW,337,6.0,14.0,34,0.00,,,-99.99,WeatherLink 5.7,2013-03-21 14:34:00,
2013-03-21 10:44:00,32.7,6.7,29.81,NW,315,6.0,16.0,33,0.00,,,-99.99,WeatherLink 5.7,2013-03-21 14:44:00,
2013-03-21 10:53:00,32.4,6.4,29.80,North,0,5.0,12.0,33,0.00,,,-99.99,WeatherLink 5.7,2013-03-21 14:53:00,
2013-03-21 11:03:00,32.8,6.1,29.79,NNW,337,8.0,15.0,32,0.00,,,-99.99,WeatherLink 5.7,2013-03-21 15:03:00,
2013-03-21 11:14:00,33.0,5.6,29.79,North,0,8.0,17.0,31,0.00,,,-99.99,WeatherLink 5.7,2013-03-21 15:14:00,
2013-03-21 11:24:00,33.2,7.2,29.79,NNW,337,7.0,15.0,33,0.00,,,-99.99,WeatherLink 5.7,2013-03-21 15:24:00,
2013-03-21 11:33:00,33.2,6.5,29.79,North,0,7.0,13.0,32,0.00,,,-99.99,WeatherLink 5.7,2013-03-21 15:33:00,
2013-03-21 11:44:00,33.4,6.7,29.79,NNE,22,7.0,14.0,32,0.00,,,-99.99,WeatherLink 5.7,2013-03-21 15:44:00,
2013-03-21 11:53:00,33.6,6.8,29.78,NW,315,6.0,11.0,32,0.00,,,-99.99,WeatherLink 5.7,2013-03-21 15:53:00,
2013-03-21 12:03:00,33.9,7.1,29.77,North,0,5.0,12.0,32,0.00,,,-99.99,WeatherLink 5.7,2013-03-21 16:03:00,
2013-03-21 12:14:00,33.8,7.7,29.77,North,0,8.0,16.0,33,0.00,,,-99.99,WeatherLink 5.7,2013-03-21 16:14:00,
2013-03-21 12:24:00,33.6,6.8,29.77,North,0,7.0,15.0,32,0.00,,,-99.99,WeatherLink 5.7,2013-03-21 16:24:00,
2013-03-21 12:33:00,34.2,5.2,29.77,North,0,6.0,16.0,29,0.00,,,-99.99,WeatherLink 5.7,2013-03-21 16:33:00,
2013-03-21 12:44:00,34.0,5.8,29.76,North,0,8.0,14.0,30,0.00,,,-99.99,WeatherLink 5.7,2013-03-21 16:44:00,
2013-03-21 12:53:00,34.6,5.5,29.76,North,0,6.0,10.0,29,0.00,,,-99.99,WeatherLink 5.7,2013-03-21 16:53:00,
2013-03-21 13:03:00,34.6,7.0,29.75,NNE,22,5.0,11.0,31,0.00,,,-99.99,WeatherLink 5.7,2013-03-21 17:03:00,
2013-03-21 13:14:00,35.1,5.2,29.75,North,0,7.0,15.0,28,0.00,,,-99.99,WeatherLink 5.7,2013-03-21 17:14:00,
2013-03-21 13:23:00,35.0,5.9,29.74,NW,315,7.0,16.0,29,0.00,,,-99.99,WeatherLink 5.7,2013-03-21 17:23:00,
2013-03-21 13:34:00,34.9,5.8,29.74,North,0,7.0,13.0,29,0.00,,,-99.99,WeatherLink 5.7,2013-03-21 17:34:00,
2013-03-21 13:43:00,35.3,7.6,29.74,NW,315,8.0,16.0,31,0.00,,,-99.99,WeatherLink 5.7,2013-03-21 17:43:00,
2013-03-21 13:54:00,35.5,7.8,29.73,NW,315,6.0,13.0,31,0.00,,,-99.99,WeatherLink 5.7,2013-03-21 17:54:00,
2013-03-21 14:03:00,35.7,8.0,29.73,NW,315,5.0,13.0,31,0.00,,,-99.99,WeatherLink 5.7,2013-03-21 18:03:00,
2013-03-21 14:13:00,35.9,8.2,29.73,NNW,337,4.0,9.0,31,0.00,,,-99.99,WeatherLink 5.7,2013-03-21 18:13:00,
2013-03-21 14:24:00,36.4,8.6,29.73,NW,315,5.0,9.0,31,0.00,,,-99.99,WeatherLink 5.7,2013-03-21 18:24:00,
2013-03-21 14:33:00,35.8,7.3,29.72,NNE,22,5.0,15.0,30,0.00,,,-99.99,WeatherLink 5.7,2013-03-21 18:33:00,
2013-03-21 14:44:00,36.2,7.7,29.72,NW,315,6.0,11.0,30,0.00,,,-99.99,WeatherLink 5.7,2013-03-21 18:44:00,
2013-03-21 14:53:00,36.4,7.9,29.72,North,0,3.0,9.0,30,0.00,,,-99.99,WeatherLink 5.7,2013-03-21 18:53:00,
2013-03-21 15:03:00,36.9,6.0,29.71,NW,315,7.0,16.0,27,0.00,,,-99.99,WeatherLink 5.7,2013-03-21 19:03:00,
2013-03-21 15:14:00,37.1,6.1,29.70,NW,315,7.0,14.0,27,0.00,,,-99.99,WeatherLink 5.7,2013-03-21 19:14:00,
2013-03-21 15:23:00,37.9,6.8,29.70,NW,315,5.0,13.0,27,0.00,,,-99.99,WeatherLink 5.7,2013-03-21 19:23:00,
2013-03-21 15:33:00,38.4,6.4,29.70,NW,315,6.0,14.0,26,0.00,,,-99.99,WeatherLink 5.7,2013-03-21 19:33:00,
2013-03-21 15:44:00,38.1,5.3,29.70,NNW,337,10.0,21.0,25,0.00,,,-99.99,WeatherLink 5.7,2013-03-21 19:44:00,
2013-03-21 15:53:00,38.0,6.1,29.69,NW,315,6.0,12.0,26,0.00,,,-99.99,WeatherLink 5.7,2013-03-21 19:53:00,
2013-03-21 16:03:00,38.7,6.7,29.69,WNW,292,6.0,16.0,26,0.00,,,-99.99,WeatherLink 5.7,2013-03-21 20:03:00,
2013-03-21 16:14:00,38.2,5.4,29.69,WNW,292,6.0,12.0,25,0.00,,,-99.99,WeatherLink 5.7,2013-03-21 20:14:00,
2013-03-21 16:23:00,38.0,6.1,29.69,North,0,5.0,13.0,26,0.00,,,-99.99,WeatherLink 5.7,2013-03-21 20:23:00,
2013-03-21 16:33:00,38.9,6.0,29.68,West,270,6.0,14.0,25,0.00,,,-99.99,WeatherLink 5.7,2013-03-21 20:33:00,
2013-03-21 16:43:00,38.9,6.0,29.68,West,270,8.0,17.0,25,0.00,,,-99.99,WeatherLink 5.7,2013-03-21 20:43:00,
2013-03-21 16:53:00,38.3,6.4,29.69,NW,315,9.0,16.0,26,0.00,,,-99.99,WeatherLink 5.7,2013-03-21 20:53:00,
2013-03-21 17:03:00,38.2,7.1,29.69,WNW,292,8.0,17.0,27,0.00,,,-99.99,WeatherLink 5.7,2013-03-21 21:03:00,
2013-03-21 17:14:00,38.6,6.6,29.69,WNW,292,7.0,15.0,26,0.00,,,-99.99,WeatherLink 5.7,2013-03-21 21:14:00,
2013-03-21 17:24:00,38.2,7.1,29.69,NW,315,7.0,14.0,27,0.00,,,-99.99,WeatherLink 5.7,2013-03-21 21:24:00,
2013-03-21 17:33:00,37.7,6.7,29.69,NW,315,7.0,14.0,27,0.00,,,-99.99,WeatherLink 5.7,2013-03-21 21:33:00,
2013-03-21 17:44:00,37.7,5.8,29.69,NNW,337,6.0,12.0,26,0.00,,,-99.99,WeatherLink 5.7,2013-03-21 21:44:00,
2013-03-21 17:53:00,37.9,6.8,29.69,WNW,292,8.0,18.0,27,0.00,,,-99.99,WeatherLink 5.7,2013-03-21 21:53:00,
2013-03-21 18:03:00,38.3,6.4,29.69,West,270,6.0,15.0,26,0.00,,,-99.99,WeatherLink 5.7,2013-03-21 22:03:00,
2013-03-21 18:13:00,38.4,4.7,29.70,WNW,292,9.0,15.0,24,0.00,,,-99.99,WeatherLink 5.7,2013-03-21 22:13:00,
2013-03-21 18:24:00,38.3,4.6,29.70,NW,315,5.0,14.0,24,0.00,,,-99.99,WeatherLink 5.7,2013-03-21 22:24:00,
2013-03-21 18:33:00,38.2,4.5,29.70,NW,315,10.0,18.0,24,0.00,,,-99.99,WeatherLink 5.7,2013-03-21 22:33:00,
2013-03-21 18:43:00,37.9,4.3,29.71,WNW,292,8.0,14.0,24,0.00,,,-99.99,WeatherLink 5.7,2013-03-21 22:43:00,
2013-03-21 18:54:00,37.9,4.3,29.71,WNW,292,8.0,16.0,24,0.00,,,-99.99,WeatherLink 5.7,2013-03-21 22:54:00,
2013-03-21 19:03:00,37.4,3.8,29.71,NW,315,9.0,17.0,24,0.00,,,-99.99,WeatherLink 5.7,2013-03-21 23:03:00,
2013-03-21 19:14:00,37.2,3.7,29.72,NW,315,8.0,16.0,24,0.00,,,-99.99,WeatherLink 5.7,2013-03-21 23:14:00,
2013-03-21 19:24:00,37.2,3.7,29.73,NW,315,8.0,18.0,24,0.00,,,-99.99,WeatherLink 5.7,2013-03-21 23:24:00,
2013-03-21 19:34:00,36.8,3.3,29.73,WNW,292,9.0,16.0,24,0.00,,,-99.99,WeatherLink 5.7,2013-03-21 23:34:00,
2013-03-21 19:43:00,36.3,3.8,29.73,NW,315,10.0,19.0,25,0.00,,,-99.99,WeatherLink 5.7,2013-03-21 23:43:00,
2013-03-21 19:54:00,36.0,3.5,29.74,NW,315,10.0,20.0,25,0.00,,,-99.99,WeatherLink 5.7,2013-03-21 23:54:00,
2013-03-21 20:03:00,35.6,4.0,29.74,WNW,292,9.0,18.0,26,0.00,,,-99.99,WeatherLink 5.7,2013-03-22 00:03:00,
2013-03-21 20:14:00,35.5,3.9,29.74,NW,315,10.0,19.0,26,0.00,,,-99.99,WeatherLink 5.7,2013-03-22 00:14:00,
2013-03-21 20:23:00,35.1,4.4,29.75,NW,315,9.0,18.0,27,0.00,,,-99.99,WeatherLink 5.7,2013-03-22 00:23:00,
2013-03-21 20:33:00,34.9,4.2,29.75,NW,315,8.0,18.0,27,0.00,,,-99.99,WeatherLink 5.7,2013-03-22 00:33:00,
2013-03-21 20:43:00,34.7,4.1,29.75,WNW,292,9.0,18.0,27,0.00,,,-99.99,WeatherLink 5.7,2013-03-22 00:43:00,
2013-03-21 20:54:00,34.6,6.3,29.75,WNW,292,7.0,18.0,30,0.00,,,-99.99,WeatherLink 5.7,2013-03-22 00:54:00,
2013-03-21 21:03:00,34.5,6.9,29.75,WNW,292,7.0,13.0,31,0.00,,,-99.99,WeatherLink 5.7,2013-03-22 01:03:00,
2013-03-21 21:14:00,34.3,7.4,29.76,West,270,8.0,15.0,32,0.00,,,-99.99,WeatherLink 5.7,2013-03-22 01:14:00,
2013-03-21 21:23:00,34.2,7.4,29.77,WNW,292,6.0,14.0,32,0.00,,,-99.99,WeatherLink 5.7,2013-03-22 01:23:00,
2013-03-21 21:33:00,33.9,7.1,29.77,WNW,292,7.0,15.0,32,0.00,,,-99.99,WeatherLink 5.7,2013-03-22 01:33:00,
2013-03-21 21:44:00,33.6,6.8,29.77,NW,315,8.0,18.0,32,0.00,,,-99.99,WeatherLink 5.7,2013-03-22 01:44:00,
2013-03-21 21:53:00,33.3,6.6,29.77,NW,315,7.0,14.0,32,0.00,,,-99.99,WeatherLink 5.7,2013-03-22 01:53:00,
2013-03-21 22:03:00,33.1,7.1,29.77,WNW,292,7.0,14.0,33,0.00,,,-99.99,WeatherLink 5.7,2013-03-22 02:03:00,
2013-03-21 22:13:00,32.8,6.8,29.77,WNW,292,8.0,14.0,33,0.00,,,-99.99,WeatherLink 5.7,2013-03-22 02:13:00,
2013-03-21 22:24:00,32.5,6.5,29.77,NW,315,8.0,17.0,33,0.00,,,-99.99,WeatherLink 5.7,2013-03-22 02:24:00,
2013-03-21 22:34:00,32.4,6.4,29.78,WNW,292,6.0,13.0,33,0.00,,,-99.99,WeatherLink 5.7,2013-03-22 02:34:00,
2013-03-21 22:43:00,32.2,6.3,29.78,WNW,292,8.0,16.0,33,0.00,,,-99.99,WeatherLink 5.7,2013-03-22 02:43:00,
2013-03-21 22:53:00,32.1,6.2,29.78,WNW,292,7.0,13.0,33,0.00,,,-99.99,WeatherLink 5.7,2013-03-22 02:53:00,
2013-03-21 23:03:00,32.0,6.8,29.78,WNW,292,8.0,20.0,34,0.00,,,-99.99,WeatherLink 5.7,2013-03-22 03:03:00,
2013-03-21 23:13:00,31.9,6.7,29.78,WNW,292,9.0,16.0,34,0.00,,,-99.99,WeatherLink 5.7,2013-03-22 03:13:00,
2013-03-21 23:24:00,31.9,7.3,29.79,WNW,292,7.0,14.0,35,0.00,,,-99.99,WeatherLink 5.7,2013-03-22 03:24:00,
2013-03-21 23:34:00,31.8,7.2,29.79,WNW,292,6.0,14.0,35,0.00,,,-99.99,WeatherLink 5.7,2013-03-22 03:34:00,
2013-03-21 23:44:00,31.5,6.9,29.79,WNW,292,5.0,17.0,35,0.00,,,-99.99,WeatherLink 5.7,2013-03-22 03:44:00,
2013-03-21 23:54:00,31.8,7.2,29.80,WNW,292,4.0,11.0,35,0.00,,,-99.99,WeatherLink 5.7,2013-03-22 03:54:00,